User: anonymous   Login
Location: Newark
(18.8198°N, 82.1672°E)
Time: 02:21:49
(UTC+00:00)
Language:

NOAA 19 - Orbit

View from above orbital plane
View from above orbital plane
View from above satellite
View from above satellite

Ground track
Ground track

The orbit data is extracted from the following two-line orbital elements,

1 33591U 09005A   19288.49122059  .00000020  00000-0  36253-4 0  9990
2 33591  99.1886 282.5363 0014734  48.1652 312.0774 14.12379838550671
Epoch (UTC): 15 October 2019 11:47:21
Eccentricity: 0.0014734
inclination: 99.1886°
perigee height: 840 km
apogee height: 862 km
right ascension of ascending node: 282.5363°
argument of perigee: 48.1652°
revolutions per day: 14.12379838
mean anomaly at epoch: 312.0774°
orbit number at epoch: 55067

The dashed part of the orbit path shows where the satellite is in the earth's shadow,  

DLR